[[{"header":{"parameterUnit":"m.s-1","parameterCategory":1,"la1":30.2991,"la2":30.254,"lo1":-89.0895,"lo2":-89.0444,"dy":0.0017,"dx":0.0017,"nx":28,"ny":28,"refTime":"2024-04-18T09:00:00:Z","depth":0,"parameterNumber":2,"parameterNumberName":"U-component_of_WINDS"},"data":[0,0,0,0,0,0,0,0,0,0,0,0,0,0,0,0,0,0,0,0,0,0,0,0,0,0,0,0,0,0,0,0,0,0,0,0,0,0,0,0,0,0,0,0,0,0,0,0,0,0,0,0,0,0,0,0,0,0,-0.4828,-0.4829,0,-0.4902,-0.4903,-0.4904,-0.4939,-0.4939,-0.4939,-0.4939,-0.502,-0.5022,-0.5024,0,0,0,0,0,0,0,0,0,0,0,0,0,-0.4721,-0.4723,-0.4828,-0.4829,-0.483,-0.4902,-0.4903,-0.4904,-0.4939,-0.4939,-0.4939,-0.4939,-0.5019,-0.5022,-0.5024,0,0,0,0,0,0,0,0,0,0,0,0,0,-0.4779,-0.4723,-0.4828,-0.4856,-0.4859,-0.4902,-0.4903,-0.4904,-0.4939,-0.4939,-0.4939,-0.4939,-0.5018,-0.5021,-0.5025,-0.5046,0,0,-0.5035,-0.5036,0,0,0,0,0,0,0,0,-0.4775,-0.4783,-0.4851,-0.4854,-0.4858,-0.4911,-0.4895,-0.4952,-0.4939,-0.4909,-0.4939,-0.4939,-0.4984,-0.499,-0.5004,-0.505,-0.5053,-0.5035,-0.5037,-0.5038,-0.5039,0,0,0,0,0,0,0,-0.4771,-0.478,-0.4857,-0.4852,-0.4856,-0.4866,-0.4875,-0.4906,-0.4946,-0.4912,-0.4914,-0.4923,-0.4986,-0.5001,-0.5006,-0.5054,-0.5035,-0.5038,-0.504,-0.5041,-0.5123,-0.5123,0,0,0,0,0,0,-0.4762,-0.4776,-0.4855,-0.486,-0.4815,-0.4868,-0.4877,-0.4894,-0.4946,-0.4954,-0.4922,-0.4924,-0.4995,-0.5003,-0.5009,-0.5039,-0.5038,-0.5041,-0.5043,-0.5123,-0.5123,-0.5123,0,0,0,0,0,0,-0.476,-0.4769,-0.4852,-0.4819,-0.483,-0.487,-0.4889,-0.4896,-0.4911,-0.4954,-0.4962,-0.493,-0.4996,-0.5005,-0.5037,-0.5042,-0.5043,-0.5046,-0.5122,-0.5123,-0.5123,-0.5097,0,0,0,0,0,0,-0.4756,-0.4768,-0.4775,-0.4818,-0.4831,-0.4876,-0.4889,-0.4897,-0.4916,-0.4918,-0.4963,-0.4971,-0.4996,-0.5032,-0.504,-0.5047,-0.5048,-0.5122,-0.5123,-0.5123,-0.5098,-0.5097,-0.5096,0,0,0,0,0,-0.4753,-0.4766,-0.4775,-0.4785,-0.4841,-0.4877,-0.4884,-0.4912,-0.4916,-0.4925,-0.4953,-0.4969,-0.504,-0.5035,-0.5044,-0.5052,-0.5122,-0.5122,-0.5123,-0.5098,-0.5097,-0.5096,0,0,0,0,0,0,-0.4723,-0.4772,-0.4783,-0.481,-0.4839,-0.4882,-0.4894,-0.491,-0.4939,-0.494,-0.4975,-0.4985,-0.5014,-0.5036,-0.5029,-0.5076,-0.5083,-0.5085,-0.5061,-0.506,-0.5058,-0.5053,-0.5051,0,0,0,0,0,-0.472,-0.4743,-0.4784,-0.4804,-0.4818,-0.4853,-0.487,-0.4889,-0.4921,-0.4933,-0.4964,-0.4995,-0.5025,-0.5043,-0.5073,-0.5101,-0.5112,-0.5111,-0.511,-0.5109,-0.5111,-0.5129,-0.5129,-0.5125,-0.5125,-0.5125,0,0,-0.4713,-0.4742,-0.4755,-0.4799,-0.4824,-0.4848,-0.4864,-0.4889,-0.4908,-0.4938,-0.497,-0.4993,-0.503,-0.5061,-0.5076,-0.508,-0.5115,-0.511,-0.5108,-0.5111,-0.5129,-0.513,-0.513,-0.5125,-0.5125,-0.5125,0,0,-0.4714,-0.4738,-0.4757,-0.4781,-0.4818,-0.4841,-0.4846,-0.4887,-0.4904,-0.4936,-0.4959,-0.4983,-0.5032,-0.5059,-0.5078,-0.5089,-0.5106,-0.5098,-0.5093,-0.511,-0.511,-0.5111,-0.5116,-0.5117,-0.51,-0.51,-0.51,0,-0.4701,-0.4738,-0.4766,-0.479,-0.4809,-0.4836,-0.4857,-0.488,-0.4924,-0.4938,-0.4942,-0.5005,-0.5032,-0.507,-0.5072,-0.5087,-0.5095,-0.5093,-0.5107,-0.5108,-0.5109,-0.5114,-0.5116,-0.5098,-0.5099,-0.5099,-0.5099,0,-0.4721,-0.4746,-0.4758,-0.4799,-0.482,-0.4842,-0.4875,-0.4893,-0.4911,-0.4934,-0.4968,-0.5001,-0.5038,-0.5048,-0.5066,-0.5089,-0.509,-0.51,-0.5108,-0.5108,-0.5113,-0.5116,-0.5097,-0.5097,-0.5098,-0.5098,0,0,-0.4706,-0.4762,-0.4766,-0.4785,-0.4827,-0.4848,-0.4873,-0.4907,-0.4923,-0.4953,-0.4975,-0.5017,-0.5027,-0.5049,-0.507,-0.5085,-0.5093,-0.5093,-0.5095,-0.5093,-0.5121,-0.5114,-0.5115,-0.5104,-0.5104,-0.5105,-0.5118,0,-0.4713,-0.4756,-0.4782,-0.4815,-0.4839,-0.4865,-0.4887,-0.4916,-0.4939,-0.4965,-0.4991,-0.502,-0.503,-0.5044,-0.5059,-0.5088,-0.5099,-0.5088,-0.5127,-0.5128,-0.5117,-0.5118,-0.511,-0.5122,-0.5121,-0.5121,-0.5121,0,-0.4726,-0.4755,-0.479,-0.483,-0.4841,-0.486,-0.4895,-0.4918,-0.4952,-0.4968,-0.4993,-0.5014,-0.5043,-0.5047,-0.5088,-0.508,-0.5098,-0.5114,-0.5115,-0.5121,-0.5125,-0.5124,-0.5126,-0.5128,-0.5125,-0.5124,-0.5124,0,-0.4712,-0.4759,-0.4787,-0.4802,-0.485,-0.4862,-0.4883,-0.4917,-0.4937,-0.4968,-0.4981,-0.5015,-0.5034,-0.5061,-0.5092,-0.5092,-0.513,-0.5137,-0.5145,-0.5144,-0.5153,-0.5152,-0.5157,-0.5162,-0.5162,-0.5162,-0.5162,0,-0.4718,-0.4739,-0.4781,-0.4798,-0.4822,-0.4853,-0.4877,-0.49,-0.4931,-0.4954,-0.4979,-0.5001,-0.5039,-0.5066,-0.509,-0.5121,-0.5129,-0.5144,-0.515,-0.5142,-0.514,-0.5155,-0.5155,-0.5163,-0.5163,-0.5163,-0.5163,0,-0.4706,-0.4735,-0.4767,-0.4809,-0.482,-0.4837,-0.4874,-0.4892,-0.4916,-0.4945,-0.4954,-0.4993,-0.5026,-0.5058,-0.5103,-0.512,-0.515,-0.5158,-0.5138,-0.5142,-0.5149,-0.5148,-0.5165,-0.5169,-0.517,-0.517,-0.517,0,-0.4708,-0.4724,-0.4768,-0.4785,-0.4804,-0.4831,-0.4851,-0.4882,-0.4902,-0.4943,-0.4957,-0.4991,-0.5021,-0.5072,-0.5106,-0.514,-0.515,-0.5153,-0.5155,-0.5147,-0.5151,-0.515,-0.5153,-0.5153,-0.5152,-0.5152,-0.5152,0,-0.4708,-0.4722,-0.4749,-0.4781,-0.4804,-0.4831,-0.4859,-0.4872,-0.4909,-0.4931,-0.4964,-0.4986,-0.5032,-0.5066,-0.5105,-0.5128,-0.5147,-0.5151,-0.5155,-0.5147,-0.5135,-0.5143,-0.5136,-0.5151,-0.5151,-0.5151,-0.5151,-0.5151,-0.4704,-0.4721,-0.4754,-0.4783,-0.4807,-0.4833,-0.4853,-0.4879,-0.4907,-0.4945,-0.4963,-0.4996,-0.5032,-0.5086,-0.5109,-0.5137,-0.5142,-0.5147,-0.5149,-0.515,-0.5148,-0.513,-0.5144,-0.5144,-0.5144,-0.5144,-0.5144,0,-0.4707,-0.4729,-0.4756,-0.4794,-0.4818,-0.4831,-0.4864,-0.4883,-0.4912,-0.4943,-0.4971,-0.501,-0.5044,-0.5079,-0.5116,-0.5132,-0.5141,-0.514,-0.514,-0.5145,-0.5141,-0.5135,-0.5132,-0.5132,-0.5132,-0.5132,-0.5132,-0.5132,-0.4711,-0.4739,-0.4757,-0.4798,-0.4821,-0.4853,-0.487,-0.4895,-0.492,-0.4962,-0.4989,-0.5012,-0.5046,-0.5085,-0.5117,-0.5127,-0.514,-0.5136,-0.5149,-0.5145,-0.5145,-0.5146,-0.514,-0.5139,-0.5139,-0.515,-0.515,-0.5151]},{"header":{"parameterUnit":"m.s-1","parameterCategory":1,"la1":30.2991,"la2":30.254,"lo1":-89.0895,"lo2":-89.0444,"dy":0.0017,"dx":0.0017,"nx":28,"ny":28,"refTime":"2024-04-18T09:00:00:Z","depth":0,"parameterNumber":3,"parameterNumberName":"V-component_of_WINDS"},"data":[0,0,0,0,0,0,0,0,0,0,0,0,0,0,0,0,0,0,0,0,0,0,0,0,0,0,0,0,0,0,0,0,0,0,0,0,0,0,0,0,0,0,0,0,0,0,0,0,0,0,0,0,0,0,0,0,0,0,1.5707,1.5706,0,1.562,1.5619,1.5618,1.5569,1.5568,1.5568,1.5568,1.5479,1.5477,1.5475,0,0,0,0,0,0,0,0,0,0,0,0,0,1.583,1.5828,1.5707,1.5706,1.5705,1.562,1.5619,1.5618,1.5569,1.5568,1.5568,1.5568,1.548,1.5477,1.5474,0,0,0,0,0,0,0,0,0,0,0,0,0,1.5763,1.5827,1.5707,1.567,1.5666,1.562,1.5619,1.5617,1.5569,1.5568,1.5568,1.5568,1.548,1.5477,1.5474,1.5458,0,0,1.5464,1.5462,0,0,0,0,0,0,0,0,1.5767,1.5758,1.5677,1.5673,1.5668,1.5605,1.5629,1.5564,1.5569,1.5606,1.5568,1.5568,1.5521,1.5514,1.5498,1.5454,1.545,1.5463,1.5461,1.546,1.5459,0,0,0,0,0,0,0,1.5771,1.5762,1.5673,1.5676,1.567,1.5657,1.5648,1.5617,1.5566,1.5602,1.5599,1.5589,1.5519,1.5502,1.5496,1.5449,1.5464,1.5461,1.5459,1.5457,1.5385,1.5386,0,0,0,0,0,0,1.5782,1.5766,1.5675,1.567,1.5718,1.5655,1.5644,1.5625,1.5566,1.5557,1.5589,1.5587,1.5508,1.55,1.5493,1.5469,1.546,1.5457,1.5455,1.5385,1.5385,1.5386,0,0,0,0,0,0,1.5785,1.5774,1.5679,1.5717,1.5704,1.5654,1.5632,1.5624,1.5607,1.5556,1.5547,1.5582,1.5507,1.5497,1.5467,1.5466,1.5455,1.5452,1.5385,1.5385,1.5385,1.5423,0,0,0,0,0,0,1.5789,1.5776,1.577,1.5717,1.5702,1.5655,1.5632,1.5622,1.5601,1.5598,1.5546,1.5538,1.5506,1.5472,1.5463,1.5461,1.545,1.5385,1.5385,1.5385,1.5422,1.5425,1.5427,0,0,0,0,0,1.5793,1.5784,1.577,1.5759,1.5693,1.5655,1.5646,1.561,1.5602,1.5595,1.5561,1.5539,1.5467,1.5469,1.5459,1.5456,1.5385,1.5385,1.5385,1.5421,1.5424,1.5427,0,0,0,0,0,0,1.5839,1.5777,1.576,1.5734,1.57,1.5647,1.5637,1.5615,1.5583,1.5581,1.5537,1.5526,1.55,1.5474,1.5478,1.5436,1.5424,1.5422,1.5454,1.5457,1.5459,1.5466,1.5447,0,0,0,0,0,1.5846,1.582,1.5767,1.5749,1.5733,1.5688,1.567,1.5645,1.5608,1.5594,1.5558,1.5523,1.5492,1.5473,1.5442,1.5418,1.5405,1.541,1.5413,1.5415,1.5414,1.5398,1.5399,1.5386,1.5386,1.5386,0,0,1.586,1.5823,1.5809,1.5757,1.5728,1.5702,1.5676,1.565,1.563,1.5589,1.5558,1.5531,1.5489,1.5461,1.5447,1.5439,1.5415,1.5415,1.5418,1.5415,1.5398,1.54,1.5401,1.5386,1.5386,1.5386,0,0,1.5872,1.5842,1.5823,1.5794,1.575,1.572,1.5715,1.5664,1.5645,1.5612,1.5581,1.5556,1.5505,1.5475,1.5454,1.5453,1.5431,1.5444,1.5458,1.5442,1.5443,1.5444,1.5443,1.5443,1.5443,1.5443,1.5443,0,1.5896,1.5855,1.5816,1.5791,1.5768,1.573,1.571,1.5683,1.5632,1.5617,1.5608,1.5541,1.5511,1.5475,1.5474,1.5458,1.5451,1.545,1.5446,1.5447,1.5447,1.5445,1.5445,1.5445,1.5445,1.5445,1.5445,0,1.5885,1.5857,1.5847,1.5797,1.5774,1.5751,1.5708,1.5689,1.5665,1.5636,1.5603,1.5564,1.5523,1.5513,1.549,1.5473,1.547,1.5455,1.5441,1.545,1.5448,1.5447,1.5448,1.5447,1.5447,1.5446,0,0,1.5925,1.5853,1.585,1.5826,1.5773,1.5751,1.5726,1.5686,1.567,1.5635,1.5612,1.5568,1.5553,1.5529,1.5502,1.5489,1.5489,1.5475,1.5473,1.5478,1.5467,1.5479,1.5479,1.5474,1.5474,1.5474,1.547,0,1.593,1.5884,1.5847,1.5814,1.5787,1.5749,1.5727,1.5692,1.5664,1.5636,1.5604,1.5574,1.5557,1.5541,1.5526,1.5493,1.5486,1.5492,1.5452,1.5451,1.5464,1.5478,1.549,1.5489,1.5469,1.5469,1.5469,0,1.5929,1.5895,1.5859,1.5808,1.5795,1.5776,1.5736,1.571,1.5669,1.5649,1.5621,1.5593,1.5564,1.5552,1.5512,1.5516,1.5498,1.5478,1.5477,1.5472,1.5461,1.5473,1.5488,1.5488,1.5467,1.5468,1.5468,0,1.5961,1.5906,1.5877,1.5858,1.5797,1.5785,1.5759,1.5717,1.5695,1.566,1.5645,1.5607,1.5586,1.5556,1.5519,1.5514,1.5481,1.5467,1.5463,1.5464,1.5459,1.5459,1.5471,1.5447,1.5447,1.5447,1.5447,0,1.597,1.595,1.589,1.5873,1.5848,1.5806,1.5782,1.5753,1.5716,1.5692,1.5657,1.5634,1.5585,1.5557,1.5527,1.5497,1.5488,1.5471,1.5463,1.5474,1.5476,1.5461,1.546,1.5447,1.5447,1.5447,1.5447,0,1.6002,1.5962,1.5928,1.5872,1.5858,1.5842,1.5795,1.5776,1.5744,1.5713,1.5704,1.5655,1.5619,1.5578,1.5529,1.5509,1.5481,1.547,1.5495,1.5491,1.5489,1.549,1.5491,1.5489,1.5467,1.5467,1.5468,0,1.6011,1.5994,1.5937,1.5917,1.5892,1.5862,1.5839,1.5795,1.5773,1.5723,1.571,1.5671,1.5638,1.5583,1.5543,1.5505,1.5493,1.5496,1.5487,1.5498,1.5492,1.5493,1.5491,1.5498,1.5499,1.5499,1.55,0,1.603,1.601,1.5978,1.5938,1.5911,1.5878,1.5843,1.583,1.5779,1.5755,1.5718,1.5692,1.5641,1.5603,1.556,1.5533,1.5508,1.5502,1.5499,1.551,1.5525,1.5517,1.5502,1.5503,1.5502,1.5502,1.5502,1.5502,1.605,1.6033,1.5989,1.5954,1.5923,1.5891,1.587,1.5835,1.5803,1.5758,1.5734,1.5697,1.5655,1.5594,1.5567,1.5537,1.5529,1.5525,1.5524,1.5524,1.5526,1.553,1.5529,1.5529,1.5529,1.5529,1.5529,0,1.6067,1.6037,1.6005,1.5957,1.5928,1.5906,1.5866,1.5844,1.5812,1.5774,1.5742,1.5698,1.5661,1.5617,1.5576,1.5561,1.5548,1.5551,1.5552,1.5546,1.5536,1.5543,1.5562,1.5562,1.5562,1.5562,1.5562,1.5562,1.6073,1.6042,1.6017,1.5969,1.5939,1.5902,1.5881,1.585,1.582,1.5773,1.5741,1.5712,1.5672,1.5628,1.5592,1.558,1.5566,1.5573,1.5558,1.555,1.5547,1.5544,1.555,1.5571,1.5571,1.557,1.557,1.557]}]]